User: anonymous   Login
Location: Caltech
(34.1382°N, 118.1253°W)
Time: 01:17:02
(UTC-07:00)
Language:

Cosmos 1937 Rocket - Orbit

View from above orbital plane
View from above orbital plane
View from above satellite
View from above satellite

Ground track
Ground track

The orbit data is extracted from the following two-line orbital elements,

1 19039U 88029B   15181.16117008  .00000118  00000-0  47409-4 0  9997
2 19039 074.0464 181.5453 0023616 175.9196 254.0794 14.38226339427625
Epoch (UTC): 30 June 2015 03:52:05
Eccentricity: 0.0023616
inclination: 74.0464°
perigee height: 747 km
apogee height: 781 km
right ascension of ascending node: 181.5453°
argument of perigee: 175.9196°
revolutions per day: 14.38226339
mean anomaly at epoch: 254.0794°
orbit number at epoch: 42762

The dashed part of the orbit path shows where the satellite is in the earth's shadow,  

DLR